Regional Weather Roundup
Issued by NWS Newport/Morehead, NC

Current Version | Previous Version | Graphics & Text | Print | Product List | Glossary Off
Versions: 1 2 3 4 5 6 7 8 9 10 11 12 13 14 15 16 17 18 19 20 21 22 23 24 25 26 27 28 29 30 31 32 33 34 35 36 37 38 39 40 41 42 43 44 45 46 47 48 49 50

000
ASUS42 KMHX 251210
RWRMHX
WEATHER ROUNDUP FOR EASTERN NORTH CAROLINA
NATIONAL WEATHER SERVICE NEWPORT/MOREHEAD CITY NC
700 AM EST THU DEC 25 2014

NOTE: "FAIR" INDICATES FEW OR NO CLOUDS BELOW 12,000 FEET
WITH NO SIGNIFICANT WEATHER AND/OR OBSTRUCTIONS TO VISIBILITY

NCZ015>017-031-032-045>047-102-103-251300-
NORTH COAST

CITY           SKY/WX    TMP DP  RH WIND       PRES   REMARKS
EDENTON        CLOUDY    63  58  83 SW10      29.77R
ELIZABETH CITY CLOUDY    67  62  84 SW13      29.77R
KITTY HAWK     CLOUDY    63  62  99 SW7       29.78R
MANTEO         CLOUDY    61  59  94 SW9       29.80R

$$

NCZ045>047-081-094-103-104-251300-
CENTRAL COAST

CITY           SKY/WX    TMP DP  RH WIND       PRES   REMARKS
FRISCO         CLOUDY    60  60 100 SW13      29.81R FOG
SWANQUARTER      N/A     57 N/A N/A SW8       29.79R

$$

NCZ095-097-098-100-101-251300-
SOUTHERN COAST

CITY           SKY/WX    TMP DP  RH WIND       PRES   REMARKS
BEAUFORT       CLOUDY    59  59 100 W13       29.85R
CEDAR ISLAND     N/A     61 N/A N/A S12G17    29.85R
JACKSONVILLE   CLOUDY    60  47  61 W13       29.87R
PINEY ISLAND   CLOUDY    65  61  87 SW12      29.83R
WILMINGTON     CLOUDY    58  48  69 W15       29.89R


$$

NCZ011>013-027>030-043-044-078>080-089-090>093-098-251300-
COASTAL PLAIN

CITY           SKY/WX    TMP DP  RH WIND       PRES   REMARKS
AHOSKIE        CLOUDY    58  53  81 CALM      29.82R
CLINTON        CLOUDY    55  49  82 W8G16     29.90R
ELIZABETHTOWN  CLOUDY    55  46  73 W13G20    29.93R
GOLDSBORO      CLOUDY    57  56  97 W16G26    29.85R
GREENVILLE     CLOUDY    59  50  72 W10       29.86R
HAVELOCK       CLOUDY    63  50  62 W18G29    29.85R
KENANSVILLE    CLOUDY    56  47  72 W10       29.90R
KINSTON        CLOUDY    59  48  67 SW12G22   29.87R
NEW BERN       CLOUDY    64  46  52 W16G25    29.86R
RICHLANDS      CLOUDY    57  45  62 W9        29.88R
ROCKY MOUNT    CLOUDY    58  50  75 W10       29.85R
WASHINGTON     CLOUDY    61  47  60 W17G26    29.81R
WHITEVILLE     CLOUDY    55  45  69 W9        29.94R

$$

AMZ130-135-150-152-154-156-158-170-250-252-270-ANZ085-086-088-633-658-670-251300-
MARINE OBSERVATIONS

STATION/POSITION TIME  TEMP    WIND        PRES    WAVE   SWELL
                       AIR SEA DIR/SP/G            HT/PER HT/PER
                 (UTC) (F)     (DEG/KT/KT) (MB)    (FT/S) (FT/S)
CHESAPEAKE LIGHT 1100   63     240/ 16/ 17 1006.4
64 E VA BEACH    1200   56 53  210/ 10/ 12 1006.9    6/ 7   5/ 7
DUCK             1200   62 50  220/ 10/ 14 1007.2
2 E DUCK         1200      50                N/A     3/ 7
10 NE DUCK       1200      50                N/A     4/ 7   2/11
OREGON INLET     1200   55 54  190/ 14/ 16 1008.6
13E OREGON INLT  1200      51                N/A     6/ 7
HATTERAS CG      1200   60 57  220/  8/ 13 1009.9
DIAMOND BUOY     1200   69                 1009.3    7/ 8
17 S OCRACOKE    NOT AVBL
CAPE LOOKOUT     1100   61     230/ 11/ 13 1009.5
BEAUFORT LAB     1200   59 55  250/  7/ 13 1009.4
30 SE NEW RIVER  1200   61 60  260/ 17/ 21 1011.5    7/ 8   3/ 8
5 SE WRIGHTSVLE  NOT AVBL
225 S CAPE HAT   1120   73 72  270/ 16/ 19 1014.4    9/ 7
41 SE CHARLESTON 1200   60 73  290/ 21/ 27 1014.8    7/ 6   2/ 9

$$



USA.gov is the U.S. government's official web portal to all federal, state and local government web resources and services.